STARLINK-33845, 63495

Orbit data source: Space-Track

STARLINK-33845, 63495 is a payload satellite owned by SpaceX/Seattle (US) in LEO that was launched on Mon, 07 Apr 2025 UTC via an FALCON 9 launch vehicle from the Air Force Western Test Range (AFWTR). Payload-class satellites include a variety of spacecraft equipped with specific instruments for various scientific and technological missions. These include communications satellites like Starlink; space stations such as the ISS; scientific satellites like the Hubble; Earth observation satellites from companies like Planet Labs, Umbra, and HawkEye 360; GPS; miniature CubeSats for education and research; and military/defense satellites.

Loading next visibility...
Identifier
63495, 2025-071C
Orbit
LEO
Country
Flag of USUS
Related business
Manufacturer
SpaceX/Seattle
Mission
Operational Commercial Communications
Bus & Motor
STARLINK V2MO, Unknown motor
Mass
575 kg wet, ~530 kg dry
Launch date (UTC)
2025-04-07 (1 year ago)
Launch vehicle
FALCON 9
Launch site
Air Force Western Test Range (AFWTR)
Object type
Payload
Rocket body
Debris
Shape & HBR
Box + 2 Pan, 17.7 m
Radar Cross Section
36.964 m², Large (>1 m²)

Expand to show TLE details & history
Last TLE update: 13 hours ago

TLE from 13 hours ago
0 STARLINK-33845
1 63495U 25071C   26163.86345991  .00019386  00000-0  66473-3 0  9991
2 63495  53.1597  57.7021 0001784 131.3267 228.7888 15.30210769 67329
Epoch: 2026-06-12T20:43Z
TLE epoch observation values (Epoch: 2026-06-12T20:43:22.936Z)
Latitude
0.00003°
Longitude
-154.33024°
Altitude
476.888 km
Speed
7.628 km/s
True Right ascension
03h 50m 48s
True Declination
0° 00' 00"
Sunlit
Object was in daylight at epoch
Visualization orbit readout
Latitude
Unknown
Longitude
Unknown
Altitude
Unknown
Speed
Unknown
Apparent Right ascension
Unknown
Apparent Declination
Unknown
Sunlit
N/A
Visualization observer readout
Local Sidereal Time
20:12:49
Azimuth
Unknown
Elevation
Unknown
Doppler factor
Unknown
Orbital elements
Apogee altitude
476.662 km
Perigee altitude
474.217 km
Semi-major axis
6,853.576 km
Eccentricity
0.00018
Inclination
53.1597°
RAAN
57.7021°
Arg. of periapsis
131.3267°
True anomaly
228.77342°
Mean anomaly
228.7888°
Eccentric anomaly
228.78111°
Mean motion
3.82532 °/min
Orbital period
94.11 mins
BSTAR
0.00066473
Loading maneuver chart data...
Computing Atmospheric mass density...
Loading historical data...
Loading historical data...
Loading historical data...
Loading historical data...
Loading historical data...
Loading historical data...
Loading historical data...

Documentation

Showing up to 5 results
|